Temperature
14 14 13 13 12 11 11 10 8 6 5 4 3 2 2 1 0 -0 -1 -1 -2 -3 -3 -4 -4 -5 -6 -7 -8 -8 -9 -9 -9 -8 -8 -8 -8 -8 -8 -8 -8 -9 -9
14 13 13 13 12 11 11 10 8 6 5 3 2 1 1 0 -0 -1 -1 -1 -2 -3 -3 -4 -4 -5 -6 -7 -8 -8 -9 -9 -9 -9 -9 -8 -8 -8 -8 -8 -9 -9 -9
13 13 13 12 12 11 10 9 7 5 4 2 1 1 0 -0 -1 -1 -1 -2 -2 -3 -3 -4 -4 -5 -6 -7 -7 -8 -8 -9 -9 -9 -9 -8 -8 -8 -8 -8 -9 -9 -9
12 12 12 12 11 10 9 8 6 4 3 2 1 0 -0 -1 -2 -2 -2 -2 -3 -3 -4 -4 -4 -5 -6 -6 -7 -8 -8 -9 -9 -9 -9 -8 -8 -8 -8 -9 -9 -9 -9
11 11 11 10 10 9 8 7 5 4 2 1 -0 -1 -1 -2 -2 -2 -2 -2 -3 -3 -4 -4 -4 -5 -6 -6 -7 -7 -8 -8 -9 -8 -8 -8 -8 -8 -8 -9 -9 -9 -9
10 10 10 9 9 8 7 6 4 3 1 -1 -1 -2 -2 -2 -2 -3 -3 -3 -3 -4 -4 -4 -5 -5 -6 -7 -7 -8 -8 -8 -8 -8 -8 -8 -8 -8 -9 -9 -9 -9 -9
9 9 9 9 8 7 6 5 4 2 0 -1 -2 -3 -3 -2 -2 -3 -3 -3 -4 -4 -4 -5 -5 -5 -6 -7 -7 -8 -8 -8 -8 -8 -8 -9 -9 -9 -9 -9 -10 -10 -10
8 8 8 7 7 6 5 4 3 1 -1 -2 -3 -3 -3 -3 -3 -3 -4 -4 -5 -4 -5 -5 -5 -6 -6 -7 -8 -8 -8 -8 -8 -9 -9 -9 -9 -9 -10 -10 -10 -10 -10
7 7 6 6 5 5 4 3 1 -0 -2 -3 -4 -4 -4 -3 -3 -4 -4 -5 -5 -5 -5 -5 -5 -6 -6 -7 -8 -8 -8 -8 -8 -9 -9 -9 -9 -9 -9 -10 -10 -10 -10
5 5 5 5 4 4 3 2 0 -1 -2 -4 -4 -4 -4 -4 -4 -4 -5 -5 -5 -5 -5 -5 -5 -6 -6 -7 -8 -8 -8 -8 -8 -9 -9 -9 -9 -9 -10 -10 -11 -11 -11
4 4 4 4 3 3 2 1 -1 -2 -3 -4 -5 -5 -5 -4 -4 -5 -5 -5 -5 -5 -6 -6 -6 -6 -7 -8 -8 -8 -8 -8 -9 -9 -9 -9 -10 -10 -10 -11 -11 -11 -12
3 3 3 3 2 2 1 -0 -2 -3 -4 -5 -6 -6 -5 -5 -5 -5 -5 -5 -5 -6 -6 -6 -6 -7 -7 -8 -8 -8 -9 -9 -9 -10 -10 -10 -10 -10 -11 -11 -11 -11 -12
2 2 2 2 2 1 0 -1 -2 -4 -5 -5 -6 -6 -6 -5 -5 -5 -5 -5 -6 -6 -6 -6 -7 -7 -8 -8 -8 -9 -9 -10 -10 -10 -10 -10 -11 -11 -11 -11 -11 -11 -12
1 1 1 1 1 0 -1 -2 -3 -4 -5 -6 -6 -6 -6 -6 -5 -5 -5 -6 -6 -6 -7 -7 -7 -8 -8 -8 -9 -9 -10 -10 -10 -11 -11 -11 -11 -11 -11 -12 -12 -12 -12
0 0 0 -0 -0 -1 -2 -2 -3 -4 -4 -5 -6 -6 -6 -6 -5 -5 -5 -6 -6 -6 -7 -7 -8 -8 -9 -9 -9 -10 -10 -11 -11 -11 -11 -11 -11 -12 -12 -12 -12 -12 -12
-0 -0 -0 -1 -1 -2 -2 -3 -3 -4 -5 -6 -6 -6 -6 -6 -6 -6 -6 -6 -6 -7 -7 -8 -8 -9 -9 -9 -10 -10 -10 -11 -11 -11 -11 -12 -12 -12 -12 -12 -12 -12 -12
-0 -1 -1 -1 -2 -2 -3 -4 -4 -5 -5 -6 -6 -7 -7 -6 -6 -6 -6 -6 -7 -7 -8 -8 -8 -9 -9 -9 -10 -10 -11 -11 -11 -11 -12 -12 -12 -12 -12 -12 -12 -12 -12
-1 -1 -1 -2 -2 -3 -4 -4 -5 -5 -6 -6 -6 -6 -7 -7 -6 -6 -6 -7 -7 -8 -8 -8 -9 -9 -9 -10 -10 -10 -11 -11 -11 -11 -12 -12 -12 -12 -12 -12 -13 -13 -13
-1 -1 -2 -2 -3 -3 -4 -5 -5 -6 -6 -6 -6 -6 -7 -7 -7 -7 -7 -7 -7 -7 -8 -8 -8 -9 -9 -10 -10 -10 -11 -11 -11 -12 -12 -12 -12 -12 -12 -12 -13 -13 -13
-1 -2 -2 -2 -3 -3 -4 -5 -6 -6 -6 -7 -7 -7 -7 -7 -7 -7 -7 -7 -7 -7 -8 -8 -8 -9 -9 -10 -10 -10 -11 -11 -11 -11 -12 -12 -12 -12 -12 -12 -13 -13 -13
-2 -2 -2 -3 -3 -4 -4 -5 -6 -6 -6 -7 -7 -7 -7 -7 -7 -7 -7 -7 -7 -7 -8 -8 -8 -9 -9 -10 -10 -10 -11 -11 -11 -11 -12 -12 -12 -12 -12 -12 -12 -12 -12
-2 -2 -3 -3 -3 -4 -5 -5 -6 -6 -7 -7 -7 -7 -7 -7 -7 -7 -7 -7 -7 -7 -8 -8 -9 -9 -9 -10 -10 -10 -11 -11 -11 -11 -11 -12 -12 -12 -12 -12 -12 -12 -12
-2 -3 -3 -3 -4 -4 -5 -5 -6 -6 -7 -7 -7 -8 -8 -7 -7 -7 -7 -7 -7 -7 -8 -8 -9 -9 -9 -10 -10 -10 -11 -11 -11 -11 -11 -12 -12 -12 -12 -12 -12 -12 -12
-2 -3 -3 -4 -4 -5 -5 -6 -6 -7 -7 -7 -8 -8 -8 -8 -7 -7 -7 -7 -7 -8 -8 -8 -9 -9 -9 -10 -10 -10 -10 -11 -11 -11 -11 -11 -11 -12 -12 -12 -12 -12 -12
-3 -3 -4 -4 -4 -5 -5 -6 -6 -7 -7 -8 -8 -8 -8 -8 -8 -7 -7 -7 -8 -8 -8 -8 -9 -9 -9 -10 -10 -10 -10 -11 -11 -11 -11 -11 -11 -11 -12 -11 -11 -11 -11
-3 -4 -4 -4 -5 -5 -6 -6 -6 -7 -8 -8 -8 -8 -8 -8 -8 -7 -7 -8 -8 -8 -8 -8 -9 -9 -9 -10 -10 -10 -10 -11 -11 -11 -11 -11 -11 -11 -11 -11 -11 -11 -11
Wind_Speed
17 18 20 21 22 23 23 24 24 22 22 22 22 22 22 22 22 20 20 19 19 18 17 17 18 17 14 13 13 14 15 15 18 19 18 18 21 20 19 21 22 22 22
14 16 18 19 20 22 23 24 23 23 22 22 22 22 22 22 22 22 21 20 20 19 19 18 18 15 17 15 14 16 15 16 17 21 20 18 21 21 20 20 18 19 20
12 15 17 18 20 22 22 21 21 22 22 22 22 23 22 22 22 21 21 20 20 19 19 19 18 17 18 16 16 16 15 15 16 18 20 18 18 17 19 19 19 17 18
12 14 16 18 19 20 19 19 20 21 22 22 23 23 22 21 20 19 19 19 19 19 18 18 18 18 18 17 15 17 16 17 17 17 18 18 17 18 16 16 16 15 15
13 14 16 16 17 17 18 19 19 20 21 21 21 22 21 19 18 19 19 19 18 18 18 18 18 20 22 19 15 16 16 15 16 16 17 16 16 15 14 14 15 16 16
14 15 16 15 15 16 17 17 18 19 19 20 22 22 21 18 24 28 22 17 18 18 17 17 17 20 23 26 27 26 23 19 18 17 17 17 18 17 15 14 15 16 17
15 15 15 14 15 15 15 16 18 19 19 21 21 22 22 23 27 28 29 19 18 17 17 16 14 15 19 17 21 24 25 27 26 21 20 19 19 17 17 18 17 17 18
15 15 14 14 15 15 15 16 17 16 17 18 20 21 20 21 27 28 28 22 18 17 17 17 16 16 15 17 16 17 18 19 21 18 17 19 18 18 17 17 18 18 18
15 16 15 14 15 15 15 16 15 15 16 17 18 19 20 20 26 27 26 17 16 18 16 16 16 16 20 21 17 17 18 17 20 23 24 24 26 26 20 14 14 14 15
17 17 16 15 15 15 15 15 14 14 15 15 16 18 19 18 22 26 26 14 15 14 14 14 20 19 20 21 16 16 17 16 14 14 16 18 17 17 20 14 13 12 13
18 18 17 16 15 15 14 13 13 12 13 14 15 16 17 18 20 24 26 16 14 13 12 11 12 19 21 21 19 15 17 15 13 13 12 12 12 11 12 11 11 11 13
18 18 17 16 13 11 12 12 11 12 13 13 14 14 13 14 17 20 26 24 19 14 12 10 11 16 18 19 16 15 18 16 10 10 11 11 11 11 10 11 11 12 13
18 18 17 15 13 11 11 11 10 11 11 11 11 12 11 11 13 21 23 24 24 15 11 14 15 16 15 13 14 16 14 10 10 10 11 11 11 11 11 10 11 11 13
18 18 16 14 13 11 9 9 9 10 10 11 11 11 10 10 10 11 12 14 18 16 12 13 15 14 11 11 12 11 9 9 9 10 11 11 10 10 10 10 10 10 10
17 16 15 12 12 11 9 9 10 11 11 11 10 10 10 10 12 16 12 11 11 11 10 8 7 7 8 8 8 8 8 8 9 9 10 10 10 10 10 9 9 10 11
15 14 12 11 10 9 9 9 12 13 15 18 17 13 11 13 13 16 18 16 16 15 11 8 8 8 8 8 8 8 8 8 8 8 9 9 10 10 10 9 9 10 11
15 14 12 11 10 9 8 8 8 8 13 16 18 18 16 14 14 15 16 17 16 15 10 9 8 8 8 7 7 8 8 8 8 8 9 9 9 9 10 10 10 10 11
15 14 13 11 10 9 8 8 7 7 7 7 11 16 16 16 15 15 15 13 10 11 9 9 8 8 7 7 7 7 8 7 7 8 9 9 9 9 10 10 10 11 11
14 11 11 10 9 8 8 7 7 8 7 7 6 8 13 14 14 14 14 9 9 9 9 8 8 7 7 7 7 7 8 8 8 8 9 9 9 9 10 10 11 14 13
12 14 13 10 9 8 7 7 7 7 7 7 7 6 7 8 8 9 10 8 8 8 8 8 7 7 7 7 7 7 7 8 8 8 8 8 8 9 10 12 11 11 10
11 12 14 11 8 8 7 7 7 7 7 7 6 7 10 8 8 9 9 8 8 8 7 7 7 6 7 6 6 7 8 8 8 8 8 8 9 9 9 10 11 11 11
10 10 9 9 8 7 7 7 7 7 7 7 6 7 12 8 7 7 7 7 7 7 6 6 6 6 6 6 6 7 8 8 8 8 8 8 8 9 10 10 10 10 10
10 10 10 9 7 8 8 7 6 7 7 6 6 6 7 7 7 7 6 6 6 5 5 5 5 5 5 6 6 7 8 8 8 8 9 9 9 9 9 10 12 12 11
10 10 9 8 7 7 6 6 6 6 6 6 6 6 6 6 6 6 5 5 5 4 5 5 5 6 7 6 6 7 7 8 8 8 10 10 9 9 10 10 11 12 11
9 9 8 8 7 6 6 5 5 5 5 6 6 6 6 6 5 5 5 5 5 4 5 5 4 5 7 8 8 7 10 12 12 9 7 8 9 10 10 11 10 11 10
9 9 8 6 6 5 5 5 5 5 5 5 5 5 5 5 5 5 5 4 4 4 4 4 5 6 6 7 8 10 12 12 12 10 7 7 8 9 10 9 11 10 10
Wind_Direction
241 238 237 237 236 235 234 235 233 231 226 222 218 214 212 211 210 211 215 216 220 225 226 231 235 238 242 245 247 249 251 254 264 274 278 281 281 279 279 277 276 277 278
249 244 243 242 239 237 236 235 233 231 227 223 219 216 214 212 210 211 214 215 218 223 227 230 235 236 240 244 247 250 252 254 260 271 277 280 279 280 279 279 278 276 275
259 251 249 245 241 240 240 238 234 231 229 224 220 218 215 213 211 212 214 216 219 223 227 229 233 235 240 243 245 250 253 256 258 265 272 276 278 278 280 279 277 276 276
270 259 255 251 247 245 244 240 235 231 229 225 221 220 217 214 212 211 212 216 220 224 228 231 233 234 238 243 247 250 254 258 259 262 268 273 276 278 278 279 281 279 278
280 269 263 261 256 251 246 241 236 232 230 226 223 221 218 214 211 208 210 214 219 224 229 231 233 235 238 241 244 249 252 255 260 263 269 274 276 279 279 281 281 282 281
289 279 275 269 261 254 249 244 239 234 230 227 224 222 218 215 214 211 209 214 218 223 229 232 235 240 244 248 251 255 256 260 265 269 273 275 277 280 282 281 281 282 284
293 286 281 274 266 258 251 244 239 235 230 227 225 222 221 218 215 215 213 212 218 222 226 231 235 239 244 248 256 260 264 265 265 268 271 274 279 280 282 281 277 277 279
298 294 289 282 273 266 256 248 242 237 232 229 226 223 222 220 216 217 216 215 221 225 227 231 237 242 243 247 253 258 261 262 264 265 267 270 273 276 275 274 277 278 277
304 302 298 290 280 271 261 254 246 238 234 230 227 223 222 220 217 217 217 218 223 226 228 231 236 242 247 251 256 260 264 266 266 264 265 267 269 272 272 275 274 275 277
309 307 302 294 285 275 266 259 249 240 236 231 229 224 222 220 216 216 216 217 222 225 228 230 235 240 248 253 256 261 267 272 273 272 270 272 273 274 274 269 269 269 274
310 306 303 297 289 280 273 262 251 241 235 231 230 226 223 221 218 216 215 212 219 224 227 230 232 240 248 255 259 264 269 276 278 275 274 274 271 268 265 261 257 256 263
310 306 304 301 295 283 273 264 250 238 233 231 229 227 224 221 219 218 217 218 218 222 227 232 235 242 251 257 262 266 275 282 278 277 276 276 276 276 273 268 260 254 254
309 307 306 303 296 285 273 263 250 236 231 229 227 225 222 217 217 219 220 222 223 222 228 233 239 247 254 260 263 270 275 275 274 275 276 278 281 282 280 275 267 259 257
308 308 307 303 297 287 272 257 246 237 230 227 226 225 221 215 211 210 214 223 226 228 234 237 241 248 251 256 264 267 263 264 268 272 277 281 283 281 278 276 275 273 271
308 306 305 301 296 290 276 261 250 241 234 228 228 225 220 218 212 204 203 209 212 217 216 223 229 236 242 249 254 257 258 261 266 269 276 280 281 281 280 278 275 274 272
306 305 304 302 297 288 283 274 251 246 245 238 235 232 228 228 218 210 210 211 212 210 211 223 228 235 243 251 256 259 260 262 266 272 275 277 280 282 283 281 276 273 274
302 301 300 296 292 287 281 276 275 257 244 242 238 234 229 224 217 211 210 212 213 211 217 225 231 236 243 249 254 258 261 264 268 270 273 276 278 280 282 282 280 277 276
300 298 296 292 288 282 276 269 265 262 256 244 235 230 226 222 217 212 208 204 209 212 219 225 230 235 240 246 251 256 262 266 267 269 272 274 276 278 280 281 281 280 280
300 297 295 291 285 278 271 264 258 252 249 244 233 223 219 218 213 210 205 206 210 214 216 223 228 233 239 244 249 254 260 264 267 270 273 274 275 277 278 281 282 283 281
298 295 296 291 285 276 267 259 253 247 241 237 230 219 206 204 207 206 206 208 212 215 216 222 227 232 237 242 247 252 258 262 265 267 271 275 276 277 278 281 282 283 281
300 299 296 290 281 273 265 256 250 243 237 234 229 218 205 206 208 207 206 208 211 213 217 221 226 230 234 239 245 251 257 263 266 269 272 276 277 278 279 281 282 281 281
299 297 295 287 280 271 264 254 247 240 234 233 228 217 214 214 214 212 208 208 209 212 214 218 225 230 232 237 245 254 260 265 268 270 273 276 278 279 280 282 283 284 283
298 296 293 286 278 271 265 252 241 235 230 225 220 210 209 212 214 212 208 204 202 204 207 214 224 230 234 241 247 253 260 265 268 271 273 277 279 281 282 283 284 285 284
296 294 291 287 281 271 264 255 241 231 225 219 213 210 209 211 211 207 200 194 195 201 207 215 225 233 239 249 254 258 261 267 271 269 269 272 278 281 284 285 284 284 283
297 294 291 287 282 274 265 256 241 227 218 212 209 206 205 205 205 200 192 189 194 203 209 217 226 236 243 252 262 268 271 276 282 283 274 273 277 280 285 286 285 286 285
299 296 291 286 281 272 261 249 234 220 213 207 204 203 200 198 200 194 185 185 192 200 210 222 234 244 254 258 263 272 280 286 290 289 287 279 281 285 290 288 289 286 287
Height
1435 1432 1428 1425 1422 1420 1417 1414 1414 1413 1413 1413 1414 1416 1417 1420 1422 1424 1425 1427 1429 1430 1431 1431 1431 1431 1430 1430 1429 1427 1425 1422 1416 1409 1409 1407 1404 1400 1397 1393 1389 1384 1379
1429 1425 1421 1417 1413 1409 1406 1404 1402 1401 1401 1401 1402 1403 1405 1407 1410 1412 1414 1416 1417 1419 1420 1421 1421 1421 1420 1420 1419 1417 1415 1413 1409 1402 1399 1397 1394 1392 1388 1384 1380 1375 1370
1422 1417 1412 1408 1403 1399 1396 1393 1391 1390 1389 1389 1390 1390 1393 1395 1398 1400 1403 1406 1407 1409 1410 1410 1411 1411 1410 1410 1409 1408 1406 1404 1401 1396 1390 1388 1385 1382 1379 1374 1370 1366 1362
1413 1408 1403 1399 1394 1390 1386 1383 1380 1379 1378 1377 1378 1379 1382 1385 1387 1390 1393 1395 1397 1399 1400 1400 1401 1401 1401 1401 1400 1398 1397 1395 1392 1388 1383 1379 1376 1373 1371 1366 1361 1358 1353
1405 1399 1394 1390 1385 1380 1376 1372 1370 1368 1366 1367 1367 1368 1370 1373 1375 1378 1381 1384 1386 1388 1390 1390 1391 1391 1391 1391 1390 1388 1387 1385 1382 1379 1375 1371 1368 1365 1362 1358 1354 1349 1345
1397 1391 1386 1380 1375 1370 1366 1363 1360 1357 1356 1356 1356 1357 1359 1361 1364 1368 1371 1374 1376 1378 1380 1381 1381 1381 1381 1381 1381 1380 1379 1377 1373 1371 1367 1363 1359 1357 1354 1350 1346 1342 1336
1389 1383 1377 1371 1366 1361 1356 1352 1349 1347 1346 1344 1345 1346 1348 1350 1354 1358 1362 1364 1366 1368 1370 1371 1371 1371 1372 1372 1371 1370 1369 1367 1365 1363 1358 1354 1351 1349 1346 1342 1338 1334 1329
1381 1375 1369 1363 1357 1352 1346 1342 1339 1337 1336 1335 1335 1336 1338 1341 1345 1349 1352 1355 1357 1359 1360 1362 1362 1362 1363 1363 1362 1360 1358 1356 1355 1352 1349 1345 1343 1340 1337 1333 1329 1325 1320
1374 1368 1361 1355 1348 1343 1338 1334 1331 1328 1326 1325 1326 1327 1328 1332 1336 1340 1344 1346 1347 1349 1351 1352 1353 1353 1354 1354 1353 1351 1348 1346 1345 1342 1339 1336 1333 1331 1329 1325 1321 1317 1312
1366 1360 1353 1347 1340 1334 1329 1325 1322 1320 1318 1318 1317 1318 1320 1323 1327 1331 1335 1337 1339 1341 1342 1343 1344 1345 1345 1345 1345 1343 1340 1338 1336 1333 1330 1327 1324 1321 1319 1317 1313 1309 1305
1358 1352 1345 1339 1333 1327 1322 1318 1314 1312 1311 1310 1310 1311 1312 1315 1318 1322 1326 1328 1330 1332 1334 1335 1336 1337 1337 1337 1337 1335 1333 1331 1328 1325 1322 1319 1316 1313 1310 1307 1304 1302 1298
1350 1344 1337 1331 1325 1320 1315 1310 1307 1305 1304 1303 1303 1304 1305 1307 1310 1313 1317 1320 1323 1325 1326 1327 1328 1329 1329 1329 1329 1327 1326 1324 1320 1317 1315 1312 1309 1306 1303 1299 1296 1293 1290
1343 1336 1330 1324 1318 1313 1308 1304 1301 1299 1297 1296 1297 1297 1298 1300 1303 1306 1309 1312 1316 1317 1319 1320 1321 1322 1322 1321 1321 1319 1318 1316 1313 1311 1308 1305 1302 1299 1295 1291 1288 1285 1281
1336 1329 1323 1317 1311 1306 1302 1298 1295 1292 1290 1290 1290 1291 1292 1294 1296 1299 1302 1306 1309 1311 1313 1314 1315 1315 1315 1314 1313 1312 1310 1309 1307 1304 1301 1298 1295 1291 1288 1285 1281 1278 1275
1329 1323 1317 1311 1305 1300 1295 1292 1289 1286 1285 1284 1284 1286 1287 1288 1290 1293 1296 1299 1302 1304 1306 1307 1308 1308 1308 1307 1306 1305 1304 1302 1300 1298 1295 1292 1288 1285 1282 1279 1275 1272 1269
1323 1317 1311 1305 1300 1294 1290 1286 1282 1281 1279 1279 1279 1281 1282 1284 1287 1289 1291 1294 1297 1299 1301 1301 1301 1301 1301 1301 1300 1299 1297 1296 1294 1292 1289 1286 1283 1279 1276 1273 1270 1266 1263
1317 1311 1305 1299 1294 1289 1285 1281 1277 1275 1274 1273 1274 1275 1277 1279 1282 1284 1287 1289 1292 1294 1295 1294 1295 1295 1295 1294 1293 1292 1291 1289 1287 1285 1283 1280 1277 1274 1270 1267 1264 1260 1257
1311 1305 1299 1294 1289 1284 1280 1276 1273 1271 1270 1268 1269 1270 1272 1275 1277 1280 1283 1285 1286 1288 1288 1289 1289 1289 1289 1288 1287 1286 1285 1283 1281 1279 1277 1274 1271 1268 1265 1261 1258 1254 1251
1305 1299 1293 1288 1283 1278 1275 1271 1269 1267 1266 1265 1265 1266 1268 1271 1273 1276 1278 1279 1280 1281 1282 1283 1283 1283 1283 1282 1282 1281 1279 1277 1275 1273 1271 1268 1265 1262 1259 1256 1252 1248 1245
1298 1293 1288 1282 1277 1273 1270 1267 1265 1263 1262 1261 1262 1263 1264 1267 1268 1270 1272 1274 1275 1276 1277 1278 1278 1278 1278 1277 1276 1275 1274 1272 1270 1268 1265 1263 1260 1257 1253 1250 1246 1243 1239
1291 1286 1281 1276 1272 1268 1265 1262 1260 1259 1258 1257 1258 1259 1261 1263 1264 1266 1268 1269 1270 1272 1272 1273 1273 1273 1273 1272 1271 1270 1268 1266 1264 1262 1260 1257 1255 1251 1248 1244 1241 1237 1233
1285 1280 1275 1271 1267 1263 1260 1257 1256 1254 1254 1254 1254 1255 1257 1259 1261 1262 1264 1265 1266 1267 1268 1269 1269 1268 1268 1267 1266 1265 1263 1261 1259 1257 1254 1252 1249 1246 1243 1239 1235 1232 1228
1280 1274 1269 1265 1261 1258 1255 1253 1251 1250 1249 1250 1251 1252 1253 1255 1257 1258 1260 1261 1263 1263 1264 1264 1264 1264 1263 1263 1261 1260 1258 1256 1254 1252 1249 1247 1244 1241 1237 1234 1230 1227 1223
1274 1269 1264 1260 1256 1253 1250 1248 1247 1246 1246 1246 1247 1248 1250 1252 1253 1255 1257 1258 1259 1260 1260 1260 1260 1260 1259 1258 1257 1255 1253 1252 1249 1247 1245 1242 1239 1235 1232 1228 1225 1222 1218
1268 1263 1259 1255 1252 1249 1246 1244 1243 1242 1242 1243 1244 1245 1247 1249 1250 1252 1254 1255 1256 1256 1257 1257 1257 1256 1255 1254 1253 1251 1249 1247 1245 1243 1240 1237 1234 1231 1227 1223 1220 1217 1214
1263 1258 1254 1251 1247 1245 1243 1241 1240 1239 1240 1240 1241 1243 1245 1246 1248 1249 1251 1252 1253 1253 1254 1254 1253 1253 1252 1250 1249 1247 1245 1243 1241 1238 1236 1232 1229 1226 1223 1219 1216 1213 1210